Regional Weather Roundup
Issued by NWS

Home | Current Version | Previous Version | Text Only | Print | Product List | Glossary On
Versions: 1 2 3 4 5 6 7 8 9 10 11 12 13 14 15 16 17 18 19 20 21 22 23 24 25 26 27 28 29 30 31 32 33 34 35 36 37 38 39 40 41 42 43 44 45 46 47 48 49 50
000
ASUS45 KBOU 300210
RWRCO

WEATHER ROUNDUP FOR COLORADO
NATIONAL WEATHER SERVICE DENVER/BOULDER CO
800 PM MDT MON JUN 29 2015

NOTE: "FAIR" INDICATES FEW OR NO CLOUDS BELOW 12000 FEET WITH NO
SIGNIFICANT WEATHER AND/OR OBSTRUCTIONS TO VISIBILITY.

COZ001>005-013-030-031-300300-
...NORTHWEST COLORADO...

CITY           SKY/WX    TMP DP  RH WIND       PRES   REMARKS
CRAIG          CLEAR     83  40  21 N7        30.20R
HAYDEN         CLEAR     81  39  22 NE7       30.23R
MEEKER         CLEAR     83  43  24 N8        30.20S
MOUNT WERNER   NOT AVBL
STEAMBOAT SPGS CLEAR     80  45  29 NE12      30.26S
WALDEN         CLEAR     72  37  28 NE12      30.39S
$$

COZ006>008-011-300300-
...WEST CENTRAL VALLEYS...

CITY           SKY/WX    TMP DP  RH WIND       PRES   REMARKS
GRAND JUNCTION CLEAR     95  36  12 N12       30.02R
MONTROSE       MOCLDY    93  44  18 N10       30.12R
EAGLE          PTCLDY    84  41  21 E8        30.24R
RIFLE          CLEAR     91  40  16 N8        30.11R
DELTA          MOCLDY    95  37  13 N8        30.07R
NUCLA          MOCLDY    90  36  14 E3        30.17R
$$

COZ017>023-064>068-300300-
...SOUTHWEST COLORADO...

CITY           SKY/WX    TMP DP  RH WIND       PRES   REMARKS
DURANGO        CLOUDY    68  51  54 E6        30.23F
CORTEZ         CLEAR     82  52  35 CALM      30.14R
PAGOSA SPRINGS CLOUDY    70  45  40 NW8       30.34S
TELLURIDE      MOCLDY    76  36  23 NW6       30.45R
WOLF CREEK PAS NOT AVBL
$$

COZ009-010-012-014-032>034-037-058>063-300300-
...CENTRAL COLORADO...

CITY           SKY/WX    TMP DP  RH WIND       PRES   REMARKS
ASPEN          PTCLDY    70  50  49 SW8       30.32R
BUENA VISTA    MOCLDY    71  48  44 SE5       30.41R
COPPER MTN     PTCLDY    63  37  39 N3        30.73R
BERTHOUD PASS  FAIR      45  36  70 E20G26    30.78S
COTTONWOOD PAS NOT AVBL
GUNNISON       MOCLDY    73  45  35 E20G25    30.35R
KREMMLING      CLEAR     79  36  21 NW7       30.32S
LEADVILLE      CLEAR     64  42  44 S15       30.53R
MONARCH PASS   MOCLDY    50  43  76 NE16      30.81R
SALIDA         PTCLDY    70  60  70 CALM      30.45R
SUNLIGHT       PTCLDY    68  36  30 W3        30.63R
WILKERSON PASS CLEAR     52  39  62 NE10G17   30.70R
$$

COZ069>075-300300-
...SAN LUIS VALLEY/SANGRE DE CRISTO MOUNTAINS...

CITY           SKY/WX    TMP DP  RH WIND       PRES   REMARKS
ALAMOSA        MOCLDY    72  46  39 E17       30.32R
LA VETA PASS   PTCLDY    57  45  62 MISG      30.58R
SAGUACHE       CLOUDY    66  50  55 NW9       30.38R
$$

COZ035-036-038>040-300300-
...NORTHERN COLORADO FRONT RANGE...

CITY           SKY/WX    TMP DP  RH WIND       PRES   REMARKS
DENVER INTL AP PTCLDY    78  53  41 N8        30.20S
DMNS CITY PARK   N/A     82  44  26 N6        30.20S
AURORA         PTCLDY    78  53  42 N8        30.23S
FRONT RANGE AP PTCLDY    81  55  41 N6        30.22R
ERIE MUNI ARPT CLEAR     80  51  37 W6        30.19S
BOULDER MUN AP CLEAR     81  50  34 CALM      30.20S
CENTENNIAL     PTCLDY    79  48  33 N9        30.24S
BROOMFIELD     PTCLDY    79  54  41 W6        30.24R
FORT COLLINS   CLEAR     81  57  44 CALM      30.15S
LONGMONT       CLEAR     83  52  34 W5        30.21R
$$

COZ041-046-047-076>085-087-088-300300-
...PIKES PEAK/PALMER DIVIDE AND SOUTHERN FOOTHILLS...

CITY           SKY/WX    TMP DP  RH WIND       PRES   REMARKS
COLO. SPRINGS  MOCLDY    75  55  49 S6        30.28S
A. F. ACADEMY  CLEAR     75  51  43 VRB3      30.30R
ELLICOTT       PTCLDY   N/A N/A N/A SE6       30.27R
FALCON         PTCLDY    73  50  43 CALM      30.34S
FORT CARSON    PTCLDY    78  55  45 VRB3      30.25R
LIMON          PTCLDY    72  60  66 SE5       30.22S
MONUMENT HILL  PTCLDY    70  52  52 CALM      30.35R
TRINIDAD       MOCLDY    78  51  38 E5        30.23R
$$

COZ042>045-048>051-090-091-300300-
...NORTHEAST COLORADO...

CITY           SKY/WX    TMP DP  RH WIND       PRES   REMARKS
GREELEY ARPT   CLEAR     84  55  37 CALM      30.16S
AKRON          PTCLDY    77  58  51 CALM      30.15S
BURLINGTON     CLEAR     76  55  48 S13       30.14R
WRAY           CLEAR     82  53  35 N3        30.08S
STERLING       PTCLDY    79  59  50 CALM      30.10R
HOLYOKE        CLEAR     81  59  47 CALM      30.08S
FORT MORGAN    PTCLDY    81 -10   3 CALM      30.14F
$$

COZ086-089-092>099-300300-
...SOUTHEAST COLORADO...

CITY           SKY/WX    TMP DP  RH WIND       PRES   REMARKS
PUEBLO         MOCLDY    87  48  25 SE9       30.15R
LA JUNTA       CLEAR     77  59  53 NE8       30.13R
LAMAR          CLEAR     80  60  50 E5        30.07S
SPRINGFIELD      N/A     77  47  34 SE5       30.14S
$$


USA.gov is the U.S. government's official web portal to all federal, state and local government web resources and services.